Location: Coed Ely
(51.5661°N, 3.4150°W)
Time: 19:51:38
(UTC+00:00)

Cosmos 2221 - Pass Details

Date: 28 January 2021
Orbit: 592 x 615 km, 82.5° (Epoch: 27 February)

Event Time Altitude Azimuth Distance (km) Brightness Sun altitude
Rises 18:58:39 0° 354° (N) 2,901 6.0 -18.9°
Reaches altitude 10° 19:01:01 10° 3° (N) 1,991 5.1 -19.3°
Enters shadow 19:03:41 30° 30° (NNE) 1,128 3.6 -19.7°
